Regional Weather Roundup
Issued by NWS

Home | Current Version | Previous Version | Graphics & Text | Print | Product List | Glossary On
Versions: 1 2 3 4 5 6 7 8 9 10 11 12 13 14 15 16 17 18 19 20 21 22 23 24 25 26 27 28 29 30 31 32 33 34 35 36 37 38 39 40 41 42 43 44 45 46 47 48 49 50
984
ASUS43 KDTX 111101
RWRMI
MICHIGAN HOURLY REGIONAL WEATHER ROUNDUP
NATIONAL WEATHER SERVICE DETROIT/PONTIAC MI
600 AM EST SUN DEC 11 2016

NOTE: "FAIR" INDICATES FEW OR NO CLOUDS BELOW 12,000 FEET WITH NO
SIGNIFICANT WEATHER AND/OR OBSTRUCTION TO VISIBILITY.

MIZ047>049-052>055-059>063-066>070-074>076-081>083-111200-
SOUTHEAST LOWER MICHIGAN

CITY           SKY/WX    TMP DP  RH WIND       PRES   REMARKS
ADRIAN         LGT SNOW  23  22  96 S9        30.29F FOG     WCI  13
ALMA           LGT SNOW  23  21  93 E6        30.25F WCI  15
ANN ARBOR      LGT SNOW  23  21  92 SE7       30.28F FOG     WCI  15
BAD AXE        LGT SNOW  20  18  89 CALM      30.31F
CARO           LGT SNOW  22  20  93 SE5       30.28F WCI  16
DETROIT CITY   LGT SNOW  24  22  91 S5        30.32F FOG     WCI  18
DETROIT        LGT SNOW  24  22  91 S6        30.32F FOG     WCI  17
FLINT          LGT SNOW  22  20  92 SE8       30.27F FOG     WCI  12
GROSSE ILE     LGT SNOW  27  23  87 S10       30.31F WCI  17
HILLSDALE      LGT SNOW  23  21  93 SE7       30.23F WCI  15
HOWELL         LGT SNOW  23  20  90 SE7       30.25F WCI  14

CITY           SKY/WX    TMP DP  RH WIND       PRES   REMARKS
JACKSON        LGT SNOW  23  19  85 SE9       30.24F FOG     WCI  13
LAMBERTVILLE   LGT SNOW  26  23  89 SE3       30.31F
LANSING        LGT SNOW  22  18  85 SE10      30.25F FOG     WCI  11
LAPEER         NOT AVBL
MASON          LGT SNOW  22  21  94 SE7       30.24F WCI  14
MONROE         LGT SNOW  25  24  94 S6        30.31F WCI  18
MT. CLEMENS    FLURRIES  23  21  93 S3        30.30F
PONTIAC        LGT SNOW  22  19  89 SE9       30.26F VSB 1   WCI  12
PORT HOPE        N/A     21  16  81 S5        30.30F WCI  15
PORT HURON     LGT SNOW  23  21  93 CALM      30.33F
TRI CITIES     LGT SNOW  23  21  92 SE7       30.28F FOG     WCI  15
MIDLAND        LGT SNOW  23  20  89 E3        30.27F
TROY           LGT SNOW  24  21  89 CALM      30.32F
SAGINAW HB     LGT SNOW  23  21  93 SE6       30.28F WCI  16
$$
MIZ043>046-050>051-056>058-064>065-071>073-077>080-111200-
SOUTHWEST LOWER MICHIGAN

CITY           SKY/WX    TMP DP  RH WIND       PRES   REMARKS
BATTLE CREEK   LGT SNOW  23  21  92 SE9       30.22F FOG     WCI  13
BENTON HARBOR  LGT SNOW  25  21  85 SE9       30.18F VSB 1   WCI  15
BIG RAPIDS     LGT SNOW  21  19  91 SE7       30.19F WCI  13
COLDWATER      LGT SNOW  24  22  93 SE8       30.23F WCI  15
FREMONT        LGT SNOW  23  21  93 SE7       30.18F WCI  14
HOLLAND        FLURRIES  24  20  84 SE10      30.19F WCI  14
GRAND RAPIDS   LGT SNOW  23  19  85 SE10      30.21F FOG     WCI  12
IONIA          LGT SNOW  22  20  93 SE10      30.22F WCI  11
KALAMAZOO      LGT SNOW  24  20  84 S8        30.22F FOG     WCI  15
LUDINGTON      LGT SNOW  21  19  93 E8        30.17F WCI  11
MARSHALL       LGT SNOW  23  21  91 SE6       30.23F WCI  16
MOUNT PLEASANT LGT SNOW  22  20  93 SE6       30.23F WCI  15
MUSKEGON       CLOUDY    24  20  84 SE14      30.18F WCI  12
SOUTH HAVEN    LGT SNOW  24  22  92 S6        30.19F WCI  17
$$
MIZ016>042-111200-
NORTHERN LOWER MICHIGAN

CITY           SKY/WX    TMP DP  RH WIND       PRES   REMARKS
ALPENA         MOCLDY    16  10  77 SW3       30.27F
BELLAIRE       CLOUDY    19  16  88 S3        30.25F
CADILLAC       LGT SNOW  18  15  88 E6        30.17F WCI   9
CHARLEVOIX     CLOUDY    19  16  86 S9        30.25F WCI   9
FRANKFORT      CLOUDY    20  18  91 SE6       30.20F WCI  13
GAYLORD        CLOUDY    16  11  80 S3        30.19F
GRAYLING       LGT SNOW  16  13  90 CALM      30.22F
HARBOR SPRINGS CLOUDY    18  14  82 S5        30.23S WCI  11
HOUGHTON LAKE  LGT SNOW  17  14  88 E5        30.22F FOG     WCI  10
MANISTEE       LGT SNOW  20  17  88 E9        30.19F FOG     WCI   9
OSCODA         LGT SNOW  20  15  80 MISG      30.29S
PELLSTON       CLOUDY    16  11  80 CALM      30.23F
ROGERS CITY    CLOUDY    18  12  77 S5        30.27S WCI  11
TRAVERSE CITY  LGT SNOW  21  16  81 CALM      30.22F
$$
MIZ007>008-015-111200-
EASTERN UPPER MICHIGAN

CITY           SKY/WX    TMP DP  RH WIND       PRES   REMARKS
KINROSS        CLOUDY    15  11  83 CALM      30.23F
MACKINAC ISLAN FLURRIES  20  18  90 S5        30.22F WCI  14
NEWBERRY       CLOUDY    13   7  79 CALM      30.21S
S. S. MARIE    CLOUDY    16  12  84 CALM      30.24S
MUNISING         N/A     13   2  61 S7        30.21F WCI   3
$$
MIZ004>006-011>014-085-111200-
CENTRAL UPPER MICHIGAN

CITY           SKY/WX    TMP DP  RH WIND       PRES   REMARKS
MANISTIQUE     LGT SNOW  11   6  79 CALM      30.22F
ESCANABA       FLURRIES  14   7  73 N3        30.22F
MENOMINEE      LGT SNOW  15  11  83 N6        30.21F FOG     WCI   6
SAWYER-GWINN   CLOUDY     7   3  84 CALM      30.16F
$$
MIZ001>003-009>011-084-111200-
WESTERN UPPER MICHIGAN

CITY           SKY/WX    TMP DP  RH WIND       PRES   REMARKS
IRON MOUNTAIN  CLOUDY    11   4  73 CALM      30.14F
HOUGHTON       PTCLDY     3  -3  76 CALM      30.15F
COPPER HARBOR    N/A     11   6  81 VRB5      30.19F WCI   3
IRONWOOD       CLOUDY     1  -2  87 E5        30.11F WCI  -9
$$

ABBREVIATIONS USED IN REMARKS
   TC - TEMPERATURE IN CELSIUS
  WCI - WIND CHILL INDEX
   HX - HEAT INDEX
  VSB - VISIBILITY





USA.gov is the U.S. government's official web portal to all federal, state and local government web resources and services.